Regional Weather Roundup
Issued by NWS Spokane, WA

Home | Current Version | Previous Version | Text Only | Print | Product List | Glossary On
Versions: 1 2 3 4 5 6 7 8 9 10 11 12 13 14 15 16 17 18 19 20 21 22 23 24 25 26 27 28 29 30 31 32 33 34 35 36 37 38 39 40 41 42 43 44 45 46 47 48 49 50
633
NZUS01 KOTX 070905
RWROTX

Eastern Washington/Northern Idaho Roundup
National Weather Service, Spokane WA
100 AM PST WED DEC 07 2016

Note: "fair" indicated few or no clouds below 12,000 feet with no
significant weather and/or obstructions to visibility.

...Northeast Washington and Northern Idaho Panhandle...

CITY           SKY/WX    TMP DP  RH WIND       PRES   REMARKS
Spokane Intl   CLOUDY    22  14  71 NE5       30.25R WCI  16
Spokane Downto CLOUDY    22  15  75 E3        30.29R
Coeur d Alene  CLOUDY    20  16  84 E8        30.27R WCI  10
Deer Park      CLOUDY    22  14  71 N6        30.28R WCI  14
Sandpoint      CLOUDY    21  10  63 NE7       30.30R WCI  13
Bonners Ferry  FAIR      18   3  53 E6        30.31R WCI   9

...Southeast Washington and southern Idaho Panhandle...

CITY           SKY/WX    TMP DP  RH WIND       PRES   REMARKS
Walla Walla    CLEAR     19  14  81 CALM      30.35R
Pullman/Moscow FOG       15  13  91 CALM      30.28R VSB 1/4
Lewiston       CLOUDY    27  18  69 CALM      30.33R
Grangeville    CLOUDY    21  18  86 SW10      30.20R WCI  10

...Columbia Basin...

CITY           SKY/WX    TMP DP  RH WIND       PRES   REMARKS
Ephrata        CLOUDY    24   9  52 N10       30.35R WCI  14
Moses Lake     CLOUDY    23  14  68 N8        30.36R WCI  14
Pasco          CLEAR     17  16  95 CALM      30.42R
Richland       PTSUNNY   21  19  91 CALM      30.42R
Hermiston      MOCLDY    18  14  84 SE7       30.38R WCI   9
Pendleton      CLEAR     15  11  83 SE9       30.33R WCI   3

...East Slopes Cascades...

CITY           SKY/WX    TMP DP  RH WIND       PRES   REMARKS
The Dalles     CLEAR     26  22  84 SE7       30.38R WCI  18
Yakima         CLOUDY    27  19  72 W6        30.35R WCI  20
Ellensburg     CLOUDY    27  15  61 SE5       30.30R WCI  22
Stampede Pass  CLOUDY    19  18  95 CALM      30.16S
Wenatchee      CLOUDY    26   8  46 CALM      30.37R
Omak           PTCLDY    18   5  57 N8        30.41R WCI   8
Sunnyside      CLOUDY    24  20  85 CALM      30.36R

...Southern British Columbia...

CITY           SKY/WX    TMP DP  RH WIND       PRES   REMARKS

...Western Montana...

CITY           SKY/WX    TMP DP  RH WIND       PRES   REMARKS
Kalispell      CLOUDY     8  -3  61 N16G24    30.30R WCI -10
Libby            N/A     16   3  57 CALM      30.32R
Missoula       CLOUDY    13   0  56 SE16      30.27R WCI  -3

...Neighboring Cities...

CITY           SKY/WX    TMP DP  RH WIND       PRES   REMARKS
Seattle        PTCLDY    31  28  89 NE7       30.37R WCI  24
Portland       PTCLDY    32  29  88 CALM      30.36R
Boise          CLEAR     16  13  88 CALM      30.20R
Great Falls    CLOUDY    -3  -9  75 W5        30.35R WCI -13



USA.gov is the U.S. government's official web portal to all federal, state and local government web resources and services.